OneWeb SL0130

operational
NORAD ID: 47272 Int'l Des: 2020-100 Owner: ONEWEB Country: UK Constellation: oneweb
LEOCIRCULARPOLARONEWEB_TYPE

关于 OneWeb SL0130

正在加载描述...

实时位置

正在加载3D地球...

即将过境

高度历史

Altitude vs Time

uPlot chart will show altitude changes over time

两行轨道根数

1 47272U 20100Q 25305.55076774 .00000494 00000-0 13367-2 0 9990
2 47272 87.8971 35.8921 0001875 99.3073 260.8268 13.12445106234844
Epoch: Nov 1, 2025 • Age: 9 hours

当前状态

高度 1215.9 km
速度 7.25 km/s
星下点 18.77°N, 18.14°E
发射日期 Dec 18, 2020
运行时间 4.8 years
类型 internet

技术详情

分类 Payload
质量 148.00 kg
干质量 140.00 kg
总质量 148.00 kg
长度 1.30 m
直径 1.00 m
跨度 5.00 m
形状 Trapezoid+2 pan
制造商 ONEWUS
平台类型 ARROW
阶段状态 In Orbit
所有者/国家 ONEWEB/UK

大型星座

Loading constellations...